Retour au catalogue

STARLINK-37654

ActifCommunicationsSSO
NORAD 69141·PAYLOAD·🇺🇸 United States

Lancé May 20, 2026 depuis Vandenberg Space Force Base

Loading…

Prochains Passages (prochaines 24 heures)

TLE

FraisSource: CelesTrak SupGP

Époque: Sep 15, 2026, 03:48 UTC

1 69141C 26110T   26258.15881944 -.00055453  00000+0 -17215-2 0  2583
2 69141  97.2849  93.3301 0001760  92.3884 137.5456 15.33465698    11

Suivez STARLINK-37654 en temps réel avec AllMySat

Download on the App Store